[[{"header":{"parameterUnit":"m.s-1","parameterCategory":1,"la1":30.2991,"la2":30.254,"lo1":-89.0895,"lo2":-89.0444,"dy":0.0017,"dx":0.0017,"nx":28,"ny":28,"refTime":"2024-02-02T03:00:00:Z","depth":0,"parameterNumber":2,"parameterNumberName":"U-component_of_WINDS"},"data":[0,0,0,0,0,0,0,0,0,0,0,0,0,0,0,0,0,0,0,0,0,0,0,0,0,0,0,0,0,0,0,0,0,0,0,0,0,0,0,0,0,0,0,0,0,0,0,0,0,0,0,0,0,0,0,0,0,0,1.3189,1.3189,0,1.3203,1.3204,1.3204,1.32,1.32,1.32,1.32,1.3213,1.3213,1.3214,0,0,0,0,0,0,0,0,0,0,0,0,0,1.3156,1.3157,1.3189,1.3189,1.3189,1.3203,1.3204,1.3204,1.3201,1.32,1.32,1.32,1.3212,1.3213,1.3214,0,0,0,0,0,0,0,0,0,0,0,0,0,1.317,1.3157,1.3189,1.3189,1.319,1.3203,1.3204,1.3204,1.3201,1.32,1.32,1.3199,1.3212,1.3213,1.3214,1.3228,0,0,1.3217,1.3217,0,0,0,0,0,0,0,0,1.317,1.3172,1.3189,1.3189,1.319,1.32,1.3197,1.3212,1.3201,1.3196,1.32,1.3199,1.3209,1.321,1.3213,1.3228,1.3229,1.3217,1.3217,1.3218,1.3218,0,0,0,0,0,0,0,1.3169,1.3171,1.3195,1.3189,1.319,1.3188,1.319,1.32,1.3204,1.3197,1.3196,1.3198,1.3209,1.3212,1.3214,1.3229,1.3217,1.3218,1.3218,1.3218,1.3255,1.3256,0,0,0,0,0,0,1.3168,1.317,1.3194,1.3195,1.3178,1.3189,1.3191,1.3197,1.3204,1.3205,1.3199,1.3198,1.3211,1.3213,1.3214,1.323,1.3218,1.3219,1.3219,1.3255,1.3255,1.3256,0,0,0,0,0,0,1.3167,1.317,1.3193,1.3183,1.3185,1.319,1.3197,1.3197,1.3201,1.3206,1.3207,1.3202,1.3211,1.3213,1.3224,1.323,1.3219,1.322,1.3254,1.3255,1.3256,1.3262,0,0,0,0,0,0,1.3166,1.317,1.3175,1.3183,1.3186,1.3204,1.3197,1.3198,1.3203,1.3202,1.3209,1.321,1.3211,1.3223,1.3225,1.3231,1.322,1.3254,1.3255,1.3256,1.3262,1.3263,1.3265,0,0,0,0,0,1.3165,1.3176,1.3176,1.3179,1.3193,1.3204,1.3206,1.3208,1.3204,1.3209,1.3212,1.3209,1.323,1.3224,1.3227,1.3233,1.3253,1.3254,1.3255,1.3261,1.3263,1.3265,0,0,0,0,0,0,1.3169,1.3177,1.3177,1.3191,1.3197,1.3204,1.3211,1.321,1.3217,1.3216,1.3217,1.3218,1.323,1.3233,1.3227,1.3247,1.3241,1.3242,1.3244,1.3246,1.3248,1.3246,1.3221,0,0,0,0,0,1.3171,1.318,1.3187,1.3199,1.3202,1.3206,1.3211,1.3211,1.3218,1.322,1.3224,1.3229,1.3237,1.3242,1.3249,1.3262,1.3263,1.3268,1.327,1.3271,1.3272,1.3279,1.3281,1.3259,1.3259,1.3259,0,0,1.3176,1.3182,1.3188,1.32,1.3205,1.3213,1.3208,1.3217,1.3223,1.3221,1.3232,1.3235,1.3242,1.3254,1.326,1.3257,1.3278,1.3272,1.3273,1.3273,1.328,1.3282,1.3284,1.326,1.326,1.326,0,0,1.319,1.3195,1.3206,1.3211,1.3219,1.3221,1.3224,1.3231,1.3233,1.3245,1.3243,1.325,1.3263,1.3268,1.3272,1.3288,1.3285,1.329,1.3297,1.3304,1.3305,1.3307,1.3312,1.3314,1.3291,1.3291,1.3291,0,1.3195,1.3208,1.3211,1.3221,1.3226,1.3225,1.3235,1.324,1.3249,1.3252,1.3249,1.3266,1.327,1.3283,1.3287,1.3291,1.3293,1.3289,1.3305,1.3307,1.3308,1.3313,1.3315,1.3291,1.3291,1.3291,1.3291,0,1.3214,1.3223,1.3231,1.324,1.3246,1.3256,1.326,1.3265,1.3266,1.3268,1.328,1.3285,1.3293,1.3297,1.3297,1.331,1.3308,1.3305,1.3299,1.331,1.3315,1.3317,1.3292,1.3292,1.3292,1.3292,0,0,1.3229,1.3241,1.3243,1.3248,1.3257,1.3264,1.3273,1.3282,1.3286,1.3293,1.3301,1.3312,1.331,1.3314,1.3315,1.3321,1.3332,1.3317,1.3317,1.3319,1.3346,1.3348,1.335,1.3331,1.3332,1.3332,1.3345,0,1.3243,1.326,1.3263,1.3278,1.3287,1.3286,1.3295,1.3301,1.3304,1.3311,1.3314,1.3321,1.3318,1.3321,1.3327,1.333,1.3338,1.3329,1.3337,1.3338,1.3335,1.3352,1.3354,1.3366,1.3347,1.3348,1.3348,0,1.3261,1.3269,1.3285,1.3293,1.3296,1.3304,1.3312,1.3319,1.3326,1.3327,1.3333,1.3333,1.3342,1.3337,1.3349,1.3343,1.3347,1.3349,1.3349,1.3349,1.3343,1.3352,1.337,1.3372,1.3351,1.335,1.335,0,1.3269,1.3284,1.3296,1.33,1.3309,1.3314,1.3318,1.3325,1.333,1.3337,1.334,1.3348,1.3352,1.3358,1.336,1.3355,1.3372,1.3366,1.3373,1.3372,1.3375,1.3375,1.3393,1.3379,1.3379,1.3379,1.3379,0,1.3284,1.3293,1.33,1.3307,1.3317,1.332,1.3331,1.3335,1.334,1.3348,1.3348,1.3354,1.3357,1.3364,1.3366,1.3375,1.3377,1.3378,1.3378,1.3378,1.3378,1.338,1.3379,1.338,1.3379,1.3379,1.3379,0,1.3295,1.3299,1.3312,1.332,1.3323,1.333,1.3337,1.3343,1.3346,1.3356,1.3358,1.3363,1.3371,1.3374,1.3383,1.3385,1.3396,1.3395,1.3393,1.3393,1.3399,1.3398,1.3419,1.3422,1.3406,1.3406,1.3407,0,1.3303,1.3311,1.332,1.3325,1.333,1.3338,1.3344,1.3347,1.3353,1.3361,1.3366,1.3375,1.3381,1.3394,1.3398,1.3406,1.3405,1.3412,1.3406,1.3405,1.3404,1.3403,1.3404,1.3413,1.3413,1.3413,1.3413,0,1.3317,1.332,1.3328,1.3337,1.3343,1.335,1.3357,1.3361,1.3366,1.3372,1.3381,1.3386,1.3396,1.3404,1.3412,1.3415,1.3415,1.3415,1.3417,1.3416,1.3414,1.3414,1.3395,1.3414,1.3414,1.3414,1.3414,1.3414,1.3327,1.3334,1.3341,1.335,1.3356,1.3363,1.3369,1.3374,1.3381,1.339,1.3392,1.3401,1.3407,1.3418,1.3422,1.3428,1.3426,1.3429,1.3429,1.343,1.343,1.3414,1.343,1.343,1.343,1.343,1.343,0,1.3341,1.3346,1.3354,1.3364,1.3371,1.3371,1.3379,1.3384,1.3393,1.3399,1.3406,1.3416,1.3424,1.3429,1.3436,1.3441,1.3441,1.3443,1.3442,1.3443,1.3432,1.3429,1.3443,1.3443,1.3443,1.3443,1.3443,1.3443,1.3348,1.336,1.3363,1.3377,1.3382,1.3391,1.3396,1.3401,1.3406,1.3418,1.3425,1.3428,1.3434,1.3442,1.3449,1.345,1.3452,1.3455,1.3455,1.3445,1.3443,1.3442,1.344,1.3455,1.3455,1.3466,1.3466,1.3466]},{"header":{"parameterUnit":"m.s-1","parameterCategory":1,"la1":30.2991,"la2":30.254,"lo1":-89.0895,"lo2":-89.0444,"dy":0.0017,"dx":0.0017,"nx":28,"ny":28,"refTime":"2024-02-02T03:00:00:Z","depth":0,"parameterNumber":3,"parameterNumberName":"V-component_of_WINDS"},"data":[0,0,0,0,0,0,0,0,0,0,0,0,0,0,0,0,0,0,0,0,0,0,0,0,0,0,0,0,0,0,0,0,0,0,0,0,0,0,0,0,0,0,0,0,0,0,0,0,0,0,0,0,0,0,0,0,0,0,-0.2146,-0.2147,0,-0.2251,-0.2252,-0.2253,-0.2291,-0.229,-0.229,-0.229,-0.2399,-0.2402,-0.2405,0,0,0,0,0,0,0,0,0,0,0,0,0,-0.1983,-0.1986,-0.2146,-0.2147,-0.2149,-0.225,-0.2252,-0.2253,-0.2291,-0.229,-0.229,-0.2289,-0.2398,-0.2402,-0.2406,0,0,0,0,0,0,0,0,0,0,0,0,0,-0.2067,-0.1986,-0.2146,-0.218,-0.2184,-0.225,-0.2252,-0.2254,-0.2291,-0.229,-0.229,-0.2289,-0.2396,-0.2401,-0.2406,-0.2447,0,0,-0.2421,-0.2423,0,0,0,0,0,0,0,0,-0.2062,-0.2073,-0.2173,-0.2177,-0.2182,-0.2257,-0.2234,-0.2319,-0.2291,-0.225,-0.229,-0.2289,-0.2352,-0.2361,-0.2382,-0.2452,-0.2457,-0.2421,-0.2424,-0.2426,-0.2428,0,0,0,0,0,0,0,-0.2056,-0.2069,-0.2188,-0.2175,-0.218,-0.2191,-0.2202,-0.2251,-0.2303,-0.2254,-0.2257,-0.2268,-0.2355,-0.2377,-0.2384,-0.2459,-0.2421,-0.2426,-0.2429,-0.2431,-0.2571,-0.2572,0,0,0,0,0,0,-0.2044,-0.2064,-0.2184,-0.2191,-0.2119,-0.2194,-0.2207,-0.2234,-0.2303,-0.2313,-0.2269,-0.227,-0.2369,-0.2379,-0.2388,-0.2443,-0.2426,-0.2431,-0.2434,-0.257,-0.2571,-0.2572,0,0,0,0,0,0,-0.2041,-0.2055,-0.218,-0.2128,-0.2145,-0.2198,-0.2227,-0.2236,-0.2258,-0.2314,-0.2324,-0.2282,-0.2369,-0.2382,-0.2433,-0.2447,-0.2433,-0.2438,-0.2569,-0.2571,-0.2572,-0.2551,0,0,0,0,0,0,-0.2036,-0.2053,-0.2068,-0.2128,-0.2147,-0.2221,-0.2228,-0.2238,-0.2266,-0.2269,-0.2329,-0.2338,-0.2369,-0.2425,-0.2438,-0.2453,-0.2441,-0.2568,-0.257,-0.2571,-0.255,-0.2551,-0.2551,0,0,0,0,0,-0.203,-0.2058,-0.2069,-0.2083,-0.2167,-0.2222,-0.2233,-0.2268,-0.2267,-0.2284,-0.232,-0.2336,-0.2443,-0.243,-0.2444,-0.2462,-0.2568,-0.257,-0.2571,-0.255,-0.2551,-0.2551,0,0,0,0,0,0,-0.2,-0.2067,-0.2079,-0.2128,-0.2169,-0.2228,-0.225,-0.2267,-0.231,-0.231,-0.2352,-0.2366,-0.2414,-0.2443,-0.2427,-0.2507,-0.2507,-0.2511,-0.2486,-0.2487,-0.2487,-0.248,-0.2446,0,0,0,0,0,-0.1998,-0.2036,-0.2093,-0.213,-0.215,-0.2197,-0.2222,-0.2245,-0.229,-0.2307,-0.2347,-0.2391,-0.2435,-0.2462,-0.2505,-0.2555,-0.2569,-0.2574,-0.2575,-0.2575,-0.2579,-0.2609,-0.2612,-0.2578,-0.2578,-0.2578,0,0,-0.1996,-0.2038,-0.2059,-0.2125,-0.216,-0.22,-0.2211,-0.2252,-0.2282,-0.2314,-0.2365,-0.2396,-0.2447,-0.2498,-0.2522,-0.2524,-0.2591,-0.2577,-0.2577,-0.2581,-0.2611,-0.2614,-0.2617,-0.2579,-0.2579,-0.2579,0,0,-0.2013,-0.2048,-0.2083,-0.2118,-0.217,-0.2201,-0.2209,-0.2267,-0.2289,-0.234,-0.2365,-0.2403,-0.2476,-0.2513,-0.2541,-0.2573,-0.259,-0.2586,-0.2589,-0.2618,-0.2621,-0.2623,-0.2636,-0.264,-0.259,-0.259,-0.259,0,-0.2004,-0.2064,-0.2099,-0.2139,-0.2169,-0.2199,-0.2236,-0.2269,-0.2332,-0.2353,-0.2353,-0.2448,-0.2485,-0.2545,-0.2553,-0.2574,-0.2587,-0.2579,-0.2617,-0.262,-0.2623,-0.2636,-0.2641,-0.2589,-0.2589,-0.2589,-0.2589,0,-0.2051,-0.2092,-0.2115,-0.2175,-0.2207,-0.2245,-0.2289,-0.2317,-0.2338,-0.2369,-0.2422,-0.2468,-0.2521,-0.2537,-0.2558,-0.2602,-0.2601,-0.2609,-0.261,-0.2625,-0.2638,-0.2643,-0.2588,-0.2588,-0.2588,-0.2588,0,0,-0.205,-0.2131,-0.2139,-0.2168,-0.2229,-0.2262,-0.2302,-0.2354,-0.2378,-0.2422,-0.2458,-0.2521,-0.2529,-0.2561,-0.2587,-0.2612,-0.2636,-0.2617,-0.2619,-0.262,-0.2689,-0.2683,-0.2688,-0.2648,-0.2649,-0.265,-0.2685,0,-0.2076,-0.2148,-0.2183,-0.2241,-0.228,-0.2311,-0.2347,-0.2389,-0.2419,-0.2458,-0.2493,-0.2537,-0.2544,-0.2564,-0.259,-0.2628,-0.2651,-0.2626,-0.2683,-0.2685,-0.267,-0.2694,-0.2687,-0.2718,-0.269,-0.2691,-0.2691,0,-0.2114,-0.2158,-0.222,-0.2278,-0.2295,-0.2327,-0.2378,-0.2415,-0.2464,-0.2485,-0.2521,-0.2546,-0.2591,-0.2589,-0.2654,-0.2636,-0.2662,-0.2684,-0.2686,-0.2693,-0.2689,-0.2702,-0.2728,-0.2733,-0.2699,-0.2699,-0.2698,0,-0.2109,-0.2183,-0.223,-0.2254,-0.2322,-0.2343,-0.2373,-0.2422,-0.2451,-0.2497,-0.2517,-0.2567,-0.2595,-0.2634,-0.2672,-0.2667,-0.2734,-0.2734,-0.2753,-0.2752,-0.2766,-0.2765,-0.2797,-0.2782,-0.2781,-0.2781,-0.2781,0,-0.2134,-0.2171,-0.2229,-0.2258,-0.2301,-0.2341,-0.2383,-0.2415,-0.2458,-0.2495,-0.2525,-0.2559,-0.2608,-0.2648,-0.2679,-0.2729,-0.2741,-0.276,-0.2767,-0.2757,-0.2755,-0.2775,-0.2774,-0.2783,-0.2782,-0.2782,-0.2782,0,-0.2135,-0.2175,-0.2228,-0.2289,-0.2305,-0.2334,-0.2387,-0.2417,-0.245,-0.2496,-0.251,-0.2561,-0.2611,-0.2653,-0.2719,-0.274,-0.2791,-0.28,-0.2775,-0.2779,-0.2796,-0.2794,-0.2843,-0.2852,-0.2829,-0.2829,-0.283,0,-0.2148,-0.2177,-0.2241,-0.2267,-0.2297,-0.2339,-0.237,-0.2411,-0.2442,-0.2501,-0.2525,-0.2577,-0.262,-0.2699,-0.2743,-0.2794,-0.2805,-0.2818,-0.2813,-0.2802,-0.2806,-0.2804,-0.2808,-0.2819,-0.2819,-0.2819,-0.2819,0,-0.2168,-0.2186,-0.2229,-0.2279,-0.2314,-0.2356,-0.2398,-0.2419,-0.2468,-0.2502,-0.2553,-0.2587,-0.2655,-0.2707,-0.2763,-0.2795,-0.2816,-0.282,-0.2828,-0.2818,-0.2802,-0.2812,-0.2776,-0.2819,-0.2819,-0.2819,-0.2819,-0.2819,-0.2176,-0.2204,-0.2253,-0.23,-0.2337,-0.2376,-0.2408,-0.2445,-0.2488,-0.2546,-0.2568,-0.2621,-0.2671,-0.2749,-0.2781,-0.2824,-0.2827,-0.2837,-0.284,-0.2842,-0.2841,-0.2795,-0.2834,-0.2834,-0.2834,-0.2834,-0.2834,0,-0.2198,-0.2232,-0.2274,-0.2333,-0.237,-0.2386,-0.2435,-0.2465,-0.2511,-0.2556,-0.2599,-0.2659,-0.271,-0.2758,-0.2812,-0.2837,-0.2848,-0.285,-0.2849,-0.2856,-0.2835,-0.2823,-0.284,-0.284,-0.284,-0.284,-0.284,-0.284,-0.2214,-0.2262,-0.2287,-0.2355,-0.2389,-0.2441,-0.2467,-0.2504,-0.2541,-0.2606,-0.2648,-0.2679,-0.2727,-0.2784,-0.2833,-0.2846,-0.2865,-0.2864,-0.288,-0.2859,-0.2857,-0.2856,-0.2846,-0.2867,-0.2867,-0.2898,-0.2898,-0.2898]}]]